Location: Brno
(49.2000°N, 16.6330°E)
Time: 17:12:27
(UTC+02:00)

Transit 4A - Pass Details

Date: 29 July 2021
Orbit: 871 x 974 km, 66.8° (Epoch: 16 September)

Event Time Altitude Azimuth Distance (km) Brightness Sun altitude
Rises 10:48:05 0° 320° (NW) 3,475 10.5 49.6°
Reaches altitude 10° 10:50:41 10° 313° (NW) 2,540 9.9 49.9°
Maximum altitude 10:56:05 40° 246° (WSW) 1,291 9.0 50.6°
Drops below altitude 10° 11:01:34 10° 179° (S) 2,574 10.8 51.3°
Sets 11:04:14 0° 172° (S) 3,527 11.4 51.6°
